User: anonymous   Login
Location: Ostrava
(49.8330°N, 18.2830°E)
Time: 05:37:25
(UTC+01:00)
Language:

NOAA 19 - Orbit

View from above orbital plane
View from above orbital plane
View from above satellite
View from above satellite

Ground track
Ground track

The orbit data is extracted from the following two-line orbital elements,

1 33591U 09005A   14326.47538551  .00000339  00000-0  21006-3 0  4722
2 33591 098.9645 271.1701 0014557 036.6597 100.8457 14.11810971298323
Epoch (UTC): 22 November 2014 11:24:33
Eccentricity: 0.0014557
inclination: 98.9645°
perigee height: 842 km
apogee height: 864 km
right ascension of ascending node: 271.1701°
argument of perigee: 36.6597°
revolutions per day: 14.11810971
mean anomaly at epoch: 100.8457°
orbit number at epoch: 29832

The dashed part of the orbit path shows where the satellite is in the earth's shadow,  

DLR